• In Hungary
  • List of Countries
  • For 7 days
  • Water Temperature
  • Satellite Maps
  • Weather Map
  • News
  • Weather Widgets
  • user-avatar
    Login

    Hourly Weather Kunavino

    Today, 15 October, Monday

    Time Temperature Precipitation Wind Pressure Humidity
    00:00 +9°C° 0 mm 2 mps 748 mmHg 93%
    01:00 +9°C° 0 mm 2 mps 748 mmHg 93%
    02:00 +9°C° 0 mm 1 mps 748 mmHg 93%
    03:00 +9°C° 0 mm 1 mps 748 mmHg 93%
    04:00 +8°C° 0 mm 2 mps 748 mmHg 93%
    05:00 +7°C° 0 mm 2 mps 748 mmHg 94%
    06:00 +8°C° 0 mm 2 mps 748 mmHg 92%
    07:00 +8°C° 0 mm 2 mps 748 mmHg 90%
    08:00 +9°C° 0 mm 2 mps 748 mmHg 85%
    09:00 +10°C° 0 mm 2 mps 748 mmHg 79%
    10:00 +12°C° 0 mm 2 mps 748 mmHg 73%
    11:00 +14°C° 0 mm 2 mps 748 mmHg 67%
    12:00 +14°C° 0 mm 2 mps 748 mmHg 64%
    13:00 +14°C° 0 mm 3 mps 748 mmHg 61%
    14:00 +16°C° 0 mm 3 mps 748 mmHg 58%
    15:00 +14°C° 0 mm 2 mps 747 mmHg 63%
    16:00 +13°C° 0 mm 2 mps 747 mmHg 69%
    17:00 +10°C° 0 mm 2 mps 747 mmHg 74%
    18:00 +10°C° 0 mm 2 mps 747 mmHg 75%
    19:00 +9°C° 0 mm 2 mps 747 mmHg 76%
    20:00 +9°C° 0 mm 2 mps 747 mmHg 77%
    21:00 +8°C° 0 mm 2 mps 747 mmHg 78%
    22:00 +8°C° 0 mm 2 mps 747 mmHg 78%
    23:00 +8°C° 0 mm 2 mps 747 mmHg 79%

    Tomorrow, 16 October, Tuesday

    Time Temperature Precipitation Wind Pressure Humidity
    00:00 +7°C° 0 mm 2 mps 747 mmHg 80%
    01:00 +7°C° 0 mm 2 mps 747 mmHg 81%
    02:00 +7°C° 0 mm 2 mps 746 mmHg 82%
    03:00 +7°C° 0 mm 2 mps 746 mmHg 82%
    04:00 +6°C° 0 mm 2 mps 746 mmHg 83%
    05:00 +6°C° 0 mm 2 mps 746 mmHg 84%
    06:00 +7°C° 0 mm 3 mps 746 mmHg 81%
    07:00 +7°C° 0 mm 3 mps 746 mmHg 79%
    08:00 +7°C° 0 mm 3 mps 746 mmHg 77%
    09:00 +9°C° 0 mm 3 mps 746 mmHg 71%
    10:00 +10°C° 0 mm 3 mps 746 mmHg 66%
    11:00 +12°C° 0 mm 3 mps 746 mmHg 61%
    12:00 +13°C° 0 mm 3 mps 746 mmHg 60%
    13:00 +13°C° 0 mm 3 mps 745 mmHg 58%
    14:00 +14°C° 0 mm 3 mps 745 mmHg 57%
    15:00 +13°C° 0 mm 3 mps 745 mmHg 63%
    16:00 +13°C° 0 mm 2 mps 745 mmHg 69%
    17:00 +10°C° 0 mm 2 mps 745 mmHg 74%
    18:00 +10°C° 0 mm 2 mps 745 mmHg 77%
    19:00 +9°C° 0 mm 2 mps 745 mmHg 79%
    20:00 +9°C° 0 mm 2 mps 745 mmHg 82%
    21:00 +8°C° 0 mm 2 mps 745 mmHg 84%
    22:00 +8°C° 0 mm 2 mps 745 mmHg 86%
    23:00 +8°C° 0 mm 1 mps 746 mmHg 88%

    Day after tomorrow, 17 October, Wednesday

    Time Temperature Precipitation Wind Pressure Humidity
    00:00 +8°C° 0 mm 1 mps 746 mmHg 89%
    01:00 +8°C° 0 mm 1 mps 746 mmHg 90%
    02:00 +7°C° 0 mm 1 mps 746 mmHg 91%
    03:00 +7°C° 0 mm 1 mps 746 mmHg 92%
    04:00 +7°C° 0 mm 1 mps 746 mmHg 92%
    05:00 +7°C° 0 mm 1 mps 746 mmHg 92%
    06:00 +7°C° 0 mm 1 mps 746 mmHg 91%
    07:00 +7°C° 0 mm 1 mps 746 mmHg 89%
    08:00 +8°C° 0 mm 1 mps 746 mmHg 88%
    09:00 +10°C° 0 mm 1 mps 746 mmHg 81%
    10:00 +11°C° 0 mm 1 mps 747 mmHg 74%
    11:00 +13°C° 0 mm 1 mps 747 mmHg 67%
    12:00 +14°C° 0 mm 1 mps 747 mmHg 66%
    13:00 +14°C° 0 mm 1 mps 746 mmHg 64%
    14:00 +15°C° 0 mm 1 mps 746 mmHg 63%
    15:00 +13°C° 0 mm 1 mps 746 mmHg 70%
    16:00 +12°C° 0 mm 1 mps 746 mmHg 76%
    17:00 +11°C° 0 mm 1 mps 746 mmHg 83%
    18:00 +10°C° 0 mm 1 mps 746 mmHg 86%
    19:00 +10°C° 0 mm 1 mps 746 mmHg 88%
    20:00 +9°C° 0 mm 1 mps 746 mmHg 91%
    21:00 +9°C° 0 mm 1 mps 746 mmHg 91%
    22:00 +9°C° 0 mm 1 mps 746 mmHg 92%
    23:00 +9°C° 0 mm 1 mps 746 mmHg 93%

    18 October, Thursday

    Time Temperature Precipitation Wind Pressure Humidity
    00:00 +9°C° 0 mm 1 mps 746 mmHg 93%
    01:00 +8°C° 0 mm 1 mps 746 mmHg 94%
    02:00 +8°C° 0 mm 1 mps 746 mmHg 94%
    03:00 +8°C° 0 mm 1 mps 746 mmHg 94%
    04:00 +8°C° 0 mm 1 mps 746 mmHg 95%
    05:00 +7°C° 0 mm 1 mps 745 mmHg 95%
    06:00 +8°C° 0 mm 1 mps 745 mmHg 94%
    07:00 +8°C° 0 mm 1 mps 745 mmHg 94%
    08:00 +8°C° 0 mm 1 mps 745 mmHg 93%
    09:00 +9°C° 0 mm 2 mps 745 mmHg 87%
    10:00 +10°C° 0 mm 2 mps 745 mmHg 81%
    11:00 +13°C° 0 mm 2 mps 745 mmHg 75%
    12:00 +13°C° 0 mm 2 mps 745 mmHg 72%
    13:00 +14°C° 0 mm 2 mps 744 mmHg 70%
    14:00 +15°C° 0 mm 2 mps 744 mmHg 68%
    15:00 +13°C° 0 mm 2 mps 744 mmHg 75%
    16:00 +12°C° 0 mm 2 mps 743 mmHg 81%
    17:00 +11°C° 0 mm 1 mps 743 mmHg 88%
    18:00 +11°C° 0 mm 1 mps 743 mmHg 90%
    19:00 +9°C° 0 mm 2 mps 743 mmHg 91%
    20:00 +9°C° 0 mm 2 mps 743 mmHg 93%
    21:00 +8°C° 0 mm 2 mps 743 mmHg 93%
    22:00 +9°C° 0 mm 1 mps 743 mmHg 93%
    23:00 +9°C° 0 mm 1 mps 743 mmHg 94%

    19 October, Friday

    Time Temperature Precipitation Wind Pressure Humidity
    00:00 +9°C° 0 mm 1 mps 743 mmHg 94%
    01:00 +8°C° 0 mm 1 mps 743 mmHg 94%
    02:00 +8°C° 0 mm 1 mps 743 mmHg 94%
    03:00 +8°C° 0 mm 1 mps 743 mmHg 94%
    04:00 +8°C° 0 mm 1 mps 742 mmHg 94%
    05:00 +8°C° 0 mm 1 mps 742 mmHg 94%
    06:00 +8°C° 0 mm 1 mps 742 mmHg 93%
    07:00 +8°C° 0 mm 1 mps 742 mmHg 93%
    08:00 +8°C° 0 mm 1 mps 742 mmHg 92%
    09:00 +10°C° 0 mm 1 mps 742 mmHg 85%
    10:00 +11°C° 0 mm 1 mps 742 mmHg 79%
    11:00 +13°C° 0 mm 1 mps 742 mmHg 73%
    12:00 +13°C° 0 mm 1 mps 742 mmHg 72%
    13:00 +14°C° 0 mm 1 mps 742 mmHg 71%
    14:00 +14°C° 0 mm 1 mps 742 mmHg 70%
    15:00 +13°C° 0 mm 1 mps 742 mmHg 75%
    16:00 +12°C° 0 mm 1 mps 742 mmHg 81%
    17:00 +10°C° 0 mm 1 mps 741 mmHg 87%
    18:00 +10°C° 0 mm 1 mps 741 mmHg 89%
    19:00 +9°C° 0 mm 1 mps 742 mmHg 91%
    20:00 +9°C° 0 mm 1 mps 742 mmHg 93%
    21:00 +9°C° 0 mm 1 mps 742 mmHg 93%
    22:00 +8°C° 0 mm 1 mps 742 mmHg 94%
    23:00 +8°C° 0 mm 1 mps 742 mmHg 94%

    20 October, Saturday

    Time Temperature Precipitation Wind Pressure Humidity
    00:00 +8°C° 0 mm 1 mps 741 mmHg 94%
    01:00 +8°C° 0 mm 1 mps 741 mmHg 94%
    02:00 +7°C° 0 mm 1 mps 741 mmHg 94%
    03:00 +7°C° 0 mm 1 mps 741 mmHg 93%
    04:00 +7°C° 0 mm 1 mps 741 mmHg 93%
    05:00 +6°C° 0 mm 1 mps 741 mmHg 93%
    06:00 +6°C° 0 mm 1 mps 741 mmHg 90%
    07:00 +7°C° 0 mm 1 mps 741 mmHg 87%
    08:00 +7°C° 0 mm 1 mps 741 mmHg 85%
    09:00 +8°C° 0 mm 1 mps 741 mmHg 79%
    10:00 +8°C° 0 mm 1 mps 741 mmHg 74%
    11:00 +9°C° 0 mm 1 mps 741 mmHg 68%
    12:00 +10°C° 0 mm 1 mps 741 mmHg 66%
    13:00 +10°C° 0 mm 1 mps 741 mmHg 64%
    14:00 +10°C° 0 mm 1 mps 741 mmHg 62%
    15:00 +9°C° 0 mm 1 mps 741 mmHg 66%
    16:00 +8°C° 0 mm 1 mps 741 mmHg 70%
    17:00 +7°C° 0 mm 1 mps 740 mmHg 74%
    18:00 +7°C° 0 mm 1 mps 740 mmHg 75%
    19:00 +7°C° 0 mm 1 mps 740 mmHg 76%
    20:00 +6°C° 0 mm 1 mps 740 mmHg 76%
    21:00 +6°C° 0 mm 1 mps 740 mmHg 78%
    22:00 +6°C° 0 mm 1 mps 740 mmHg 79%
    23:00 +4°C° 0 mm 0 mps 740 mmHg 80%
    Show more